Location: Mesa
(33.4220°N, 111.8220°W)
Time: 20:34:06
(UTC-07:00)

Hubble Space Telescope - Pass Details

Date: 28 November 2019
Orbit: 536 x 540 km, 28.5° (Epoch: 12 December)

Event Time Altitude Azimuth Distance (km) Brightness Sun altitude
Rises 19:04:35 0° 261° (W) 2,668 5.9 -21.5°
Reaches altitude 10° 19:07:40 10° 237° (WSW) 1,776 4.4 -22.1°
Maximum altitude 19:09:59 15° 202° (SSW) 1,502 3.4 -22.6°
Drops below altitude 10° 19:12:17 10° 168° (SSE) 1,774 3.4 -23.1°
Enters shadow 19:12:20 10° 167° (SSE) 1,784 3.4 -23.1°
